Year,Month,Day,Hour,Minute,Value (Times are PST for temperature in C)
2020,04,12,07,40,4.30
2020,04,12,07,41,4.30
2020,04,12,07,42,4.30
2020,04,12,07,43,4.30
2020,04,12,07,44,4.30
2020,04,12,07,45,4.30
2020,04,12,07,46,4.30
2020,04,12,07,47,4.30
2020,04,12,07,48,4.40
2020,04,12,07,49,4.40
2020,04,12,07,50,4.40
2020,04,12,07,51,4.50
2020,04,12,07,52,4.50
2020,04,12,07,53,4.60
2020,04,12,07,54,4.60
2020,04,12,07,55,4.60
2020,04,12,07,56,4.70
2020,04,12,07,57,4.70
2020,04,12,07,58,4.80
2020,04,12,07,59,4.80
2020,04,12,08,00,4.90
2020,04,12,08,01,4.90
2020,04,12,08,02,4.90
2020,04,12,08,03,5.00
2020,04,12,08,04,5.10
2020,04,12,08,05,5.10
2020,04,12,08,06,5.10
2020,04,12,08,07,5.20
2020,04,12,08,08,5.20
2020,04,12,08,09,5.30
2020,04,12,08,10,5.30
2020,04,12,08,11,5.30
2020,04,12,08,12,5.40
2020,04,12,08,13,5.40
2020,04,12,08,14,5.50
2020,04,12,08,15,5.50
2020,04,12,08,16,5.60
2020,04,12,08,17,5.70
2020,04,12,08,18,5.70
2020,04,12,08,19,5.80
2020,04,12,08,20,5.80
2020,04,12,08,21,5.90
2020,04,12,08,22,5.90
2020,04,12,08,23,6.00
2020,04,12,08,24,6.00
2020,04,12,08,25,6.10
2020,04,12,08,26,6.10
2020,04,12,08,27,6.10
2020,04,12,08,28,6.20
2020,04,12,08,29,6.20
2020,04,12,08,30,6.20
2020,04,12,08,31,6.30
2020,04,12,08,32,6.30
2020,04,12,08,33,6.30
2020,04,12,08,34,6.40
2020,04,12,08,35,6.40
2020,04,12,08,36,6.40
2020,04,12,08,37,6.50
2020,04,12,08,38,6.50
2020,04,12,08,39,6.60
2020,04,12,08,40,6.60
2020,04,12,08,41,6.60
2020,04,12,08,42,6.70
2020,04,12,08,43,6.70
2020,04,12,08,44,6.70
2020,04,12,08,45,6.80
2020,04,12,08,46,6.80
2020,04,12,08,47,6.80
2020,04,12,08,48,6.80
2020,04,12,08,49,6.90
2020,04,12,08,50,6.90
2020,04,12,08,51,6.90
2020,04,12,08,52,6.90
2020,04,12,08,53,6.90
2020,04,12,08,54,6.90
2020,04,12,08,55,7.00
2020,04,12,08,56,7.00
2020,04,12,08,57,7.00
2020,04,12,08,58,7.10
2020,04,12,08,59,7.10
2020,04,12,09,00,7.10
2020,04,12,09,01,7.20
2020,04,12,09,02,7.20
2020,04,12,09,03,7.30
2020,04,12,09,04,7.30
2020,04,12,09,05,7.40
2020,04,12,09,06,7.40
2020,04,12,09,07,7.40
2020,04,12,09,08,7.40
2020,04,12,09,09,7.40
2020,04,12,09,10,7.50
2020,04,12,09,11,7.50
2020,04,12,09,12,7.50
2020,04,12,09,13,7.50
2020,04,12,09,14,7.60
2020,04,12,09,15,7.60
2020,04,12,09,16,7.70
2020,04,12,09,17,7.70
2020,04,12,09,18,7.80
2020,04,12,09,19,7.80
2020,04,12,09,20,7.90
2020,04,12,09,21,8.00
2020,04,12,09,22,8.00
2020,04,12,09,23,8.00
2020,04,12,09,24,8.10
2020,04,12,09,25,8.20
2020,04,12,09,26,8.20
2020,04,12,09,27,8.20
2020,04,12,09,28,8.30
2020,04,12,09,29,8.30
2020,04,12,09,30,8.40
2020,04,12,09,31,8.40
2020,04,12,09,32,8.40
2020,04,12,09,33,8.50
2020,04,12,09,34,8.50
2020,04,12,09,35,8.50
2020,04,12,09,36,8.50
2020,04,12,09,37,8.60
2020,04,12,09,38,8.60
2020,04,12,09,39,8.60
2020,04,12,09,40,8.60
2020,04,12,09,41,8.60
2020,04,12,09,42,8.70
2020,04,12,09,43,8.70
2020,04,12,09,44,8.80
2020,04,12,09,45,8.80
2020,04,12,09,46,8.90
2020,04,12,09,47,8.90
2020,04,12,09,48,9.00
2020,04,12,09,49,9.10
2020,04,12,09,50,9.10
2020,04,12,09,51,9.10
2020,04,12,09,52,9.10
2020,04,12,09,53,9.10
2020,04,12,09,54,9.10
2020,04,12,09,55,9.10
2020,04,12,09,56,9.20
2020,04,12,09,57,9.20
2020,04,12,09,58,9.20
2020,04,12,09,59,9.30
2020,04,12,10,00,9.30
2020,04,12,10,01,9.30
2020,04,12,10,02,9.30
2020,04,12,10,03,9.40
2020,04,12,10,04,9.40
2020,04,12,10,05,9.40
2020,04,12,10,06,9.40
2020,04,12,10,07,9.50
2020,04,12,10,08,9.60
2020,04,12,10,09,9.60
2020,04,12,10,10,9.60
2020,04,12,10,11,9.70
2020,04,12,10,12,9.70
2020,04,12,10,13,9.70
2020,04,12,10,14,9.70
2020,04,12,10,15,9.60
2020,04,12,10,16,9.60
2020,04,12,10,17,9.70
2020,04,12,10,18,9.70
2020,04,12,10,19,9.70
2020,04,12,10,20,9.80
2020,04,12,10,21,9.80
2020,04,12,10,22,9.80
2020,04,12,10,23,9.90
2020,04,12,10,24,9.90
2020,04,12,10,25,10.00
2020,04,12,10,26,10.00
2020,04,12,10,27,10.10
2020,04,12,10,28,10.20
2020,04,12,10,29,10.20
2020,04,12,10,30,10.20
2020,04,12,10,31,10.30
2020,04,12,10,32,10.30
2020,04,12,10,33,10.30
2020,04,12,10,34,10.40
2020,04,12,10,35,10.40
2020,04,12,10,36,10.40
2020,04,12,10,37,10.40
2020,04,12,10,38,10.40
2020,04,12,10,39,10.40
2020,04,12,10,40,10.40
2020,04,12,10,41,10.50
2020,04,12,10,42,10.50
2020,04,12,10,43,10.60
2020,04,12,10,44,10.60
2020,04,12,10,45,10.60
2020,04,12,10,46,10.60
2020,04,12,10,47,10.60
2020,04,12,10,48,10.60
2020,04,12,10,49,10.60
2020,04,12,10,50,10.60
2020,04,12,10,51,10.60
2020,04,12,10,52,10.60
2020,04,12,10,53,10.70
2020,04,12,10,54,10.70
2020,04,12,10,55,10.70
2020,04,12,10,56,10.70
2020,04,12,10,57,10.70
2020,04,12,10,58,10.80
2020,04,12,10,59,10.80
2020,04,12,11,00,10.90
2020,04,12,11,01,11.00
2020,04,12,11,02,11.10
2020,04,12,11,03,11.20
2020,04,12,11,04,11.30
2020,04,12,11,05,11.40
2020,04,12,11,06,11.60
2020,04,12,11,07,11.70
2020,04,12,11,08,11.80
2020,04,12,11,09,11.80
2020,04,12,11,10,11.90
2020,04,12,11,11,11.90
2020,04,12,11,12,12.00
2020,04,12,11,13,12.00
2020,04,12,11,14,12.10
2020,04,12,11,15,12.00
2020,04,12,11,16,12.00
2020,04,12,11,17,11.90
2020,04,12,11,18,11.80
2020,04,12,11,19,11.80
2020,04,12,11,20,11.70
2020,04,12,11,21,11.60
2020,04,12,11,22,11.50
2020,04,12,11,23,11.40
2020,04,12,11,24,11.30
2020,04,12,11,25,11.30
2020,04,12,11,26,11.30
2020,04,12,11,27,11.30
2020,04,12,11,28,11.20
2020,04,12,11,29,11.20
2020,04,12,11,30,11.30
2020,04,12,11,31,11.30
2020,04,12,11,32,11.40
2020,04,12,11,33,11.40
2020,04,12,11,34,11.40
2020,04,12,11,35,11.40
2020,04,12,11,36,11.40
2020,04,12,11,37,11.40
2020,04,12,11,38,11.40
2020,04,12,11,39,11.40
2020,04,12,11,40,11.40
2020,04,12,11,41,11.40
2020,04,12,11,42,11.40
2020,04,12,11,43,11.40
2020,04,12,11,44,11.40
2020,04,12,11,45,11.50
2020,04,12,11,46,11.50
2020,04,12,11,47,11.50
2020,04,12,11,48,11.50
2020,04,12,11,49,11.50
2020,04,12,11,50,11.60
2020,04,12,11,51,11.60
2020,04,12,11,52,11.70
2020,04,12,11,53,11.70
2020,04,12,11,54,11.80
2020,04,12,11,55,11.90
2020,04,12,11,56,11.90
2020,04,12,11,57,12.00
2020,04,12,11,58,12.00
2020,04,12,11,59,12.10
2020,04,12,12,00,12.00
2020,04,12,12,01,12.00
2020,04,12,12,02,12.00
2020,04,12,12,03,12.00
2020,04,12,12,04,12.00
2020,04,12,12,05,12.00
2020,04,12,12,06,11.90
2020,04,12,12,07,11.90
2020,04,12,12,08,11.90
2020,04,12,12,09,11.90
2020,04,12,12,10,11.90
2020,04,12,12,11,11.90
2020,04,12,12,12,11.90
2020,04,12,12,13,12.00
2020,04,12,12,14,12.00
2020,04,12,12,15,12.10
2020,04,12,12,16,12.10
2020,04,12,12,17,12.10
2020,04,12,12,18,12.10
2020,04,12,12,19,12.20
2020,04,12,12,20,12.20
2020,04,12,12,21,12.20
2020,04,12,12,22,12.20
2020,04,12,12,23,12.20
2020,04,12,12,24,12.30
2020,04,12,12,25,12.30
2020,04,12,12,26,12.40
2020,04,12,12,27,12.40
2020,04,12,12,28,12.50
2020,04,12,12,29,12.60
2020,04,12,12,30,12.80
2020,04,12,12,31,12.90
2020,04,12,12,32,13.00
2020,04,12,12,33,13.10
2020,04,12,12,34,13.10
2020,04,12,12,35,13.20
2020,04,12,12,36,13.20
2020,04,12,12,37,13.30
2020,04,12,12,38,13.30
2020,04,12,12,39,13.30
2020,04,12,12,40,13.30
2020,04,12,12,41,13.30
2020,04,12,12,42,13.30
2020,04,12,12,43,13.40
2020,04,12,12,44,13.60
2020,04,12,12,45,13.70
2020,04,12,12,46,13.80
2020,04,12,12,47,13.80
2020,04,12,12,48,13.90
2020,04,12,12,49,13.80
2020,04,12,12,50,13.80
2020,04,12,12,51,13.80
2020,04,12,12,52,13.80
2020,04,12,12,53,13.80
2020,04,12,12,54,13.80
2020,04,12,12,55,13.80
2020,04,12,12,56,13.80
2020,04,12,12,57,13.90
2020,04,12,12,58,13.90
2020,04,12,12,59,13.90
2020,04,12,13,00,13.90
2020,04,12,13,01,14.00
2020,04,12,13,02,14.00
2020,04,12,13,03,13.90
2020,04,12,13,04,13.90
2020,04,12,13,05,13.90
2020,04,12,13,06,13.90
2020,04,12,13,07,13.90
2020,04,12,13,08,13.90
2020,04,12,13,09,13.90
2020,04,12,13,10,13.90
2020,04,12,13,11,13.80
2020,04,12,13,12,13.80
2020,04,12,13,13,13.70
2020,04,12,13,14,13.70
2020,04,12,13,15,13.70
2020,04,12,13,16,13.70
2020,04,12,13,17,13.70
2020,04,12,13,18,13.70
2020,04,12,13,19,13.80
2020,04,12,13,20,13.90
2020,04,12,13,21,14.00
2020,04,12,13,22,14.10
2020,04,12,13,23,14.20
2020,04,12,13,24,14.30
2020,04,12,13,25,14.40
2020,04,12,13,26,14.40
2020,04,12,13,27,14.40
2020,04,12,13,28,14.40
2020,04,12,13,29,14.40
2020,04,12,13,30,14.40
2020,04,12,13,31,14.40
2020,04,12,13,32,14.40
2020,04,12,13,33,14.40
2020,04,12,13,34,14.30
2020,04,12,13,35,14.20
2020,04,12,13,36,14.20
2020,04,12,13,37,14.10
2020,04,12,13,38,14.10
2020,04,12,13,39,14.10
2020,04,12,13,40,14.10
2020,04,12,13,41,14.10
2020,04,12,13,42,14.10
2020,04,12,13,43,14.10
2020,04,12,13,44,14.20
2020,04,12,13,45,14.20
2020,04,12,13,46,14.20
2020,04,12,13,47,14.20
2020,04,12,13,48,14.10
2020,04,12,13,49,13.90
2020,04,12,13,50,13.80
2020,04,12,13,51,13.80
2020,04,12,13,52,13.80
2020,04,12,13,53,13.80
2020,04,12,13,54,13.90
2020,04,12,13,55,14.00
2020,04,12,13,56,14.10
2020,04,12,13,57,14.20
2020,04,12,13,58,14.40
2020,04,12,13,59,14.60
2020,04,12,14,00,14.80
2020,04,12,14,01,14.90
2020,04,12,14,02,15.00
2020,04,12,14,03,15.10
2020,04,12,14,04,15.10
2020,04,12,14,05,15.00
2020,04,12,14,06,15.00
2020,04,12,14,07,15.00
2020,04,12,14,08,14.90
2020,04,12,14,09,14.80
2020,04,12,14,10,14.80
2020,04,12,14,11,14.70
2020,04,12,14,12,14.70
2020,04,12,14,13,14.60
2020,04,12,14,14,14.50
2020,04,12,14,15,14.50
2020,04,12,14,16,14.50
2020,04,12,14,17,14.60
2020,04,12,14,18,14.60
2020,04,12,14,19,14.60
2020,04,12,14,20,14.70
2020,04,12,14,21,14.70
2020,04,12,14,22,14.80
2020,04,12,14,23,14.90
2020,04,12,14,24,15.00
2020,04,12,14,25,15.10
2020,04,12,14,26,15.20
2020,04,12,14,27,15.30
2020,04,12,14,28,15.40
2020,04,12,14,29,15.50
2020,04,12,14,30,15.50
2020,04,12,14,31,15.50
2020,04,12,14,32,15.40
2020,04,12,14,33,15.40
2020,04,12,14,34,15.50
2020,04,12,14,35,15.60
2020,04,12,14,36,15.70
2020,04,12,14,37,15.70
2020,04,12,14,38,15.70
2020,04,12,14,39,15.60
2020,04,12,14,40,15.50
2020,04,12,14,41,15.40
2020,04,12,14,42,15.30
2020,04,12,14,43,15.30
2020,04,12,14,44,15.30
2020,04,12,14,45,15.30
2020,04,12,14,46,15.40
2020,04,12,14,47,15.40
2020,04,12,14,48,15.40
2020,04,12,14,49,15.40
2020,04,12,14,50,15.40
2020,04,12,14,51,15.40
2020,04,12,14,52,15.50
2020,04,12,14,53,15.50
2020,04,12,14,54,15.50
2020,04,12,14,55,15.50
2020,04,12,14,56,15.40
2020,04,12,14,57,15.40
2020,04,12,14,58,15.30
2020,04,12,14,59,15.40
2020,04,12,15,00,15.40
2020,04,12,15,01,15.40
2020,04,12,15,02,15.50
2020,04,12,15,03,15.50
2020,04,12,15,04,15.50
2020,04,12,15,05,15.50
2020,04,12,15,06,15.50
2020,04,12,15,07,15.50
2020,04,12,15,08,15.50
2020,04,12,15,09,15.50
2020,04,12,15,10,15.50
2020,04,12,15,11,15.50
2020,04,12,15,12,15.50
2020,04,12,15,13,15.60
2020,04,12,15,14,15.60
2020,04,12,15,15,15.70
2020,04,12,15,16,15.80
2020,04,12,15,17,16.00
2020,04,12,15,18,16.10
2020,04,12,15,19,16.20
2020,04,12,15,20,16.20
2020,04,12,15,21,16.20
2020,04,12,15,22,16.20
2020,04,12,15,23,16.20
2020,04,12,15,24,16.20
2020,04,12,15,25,16.20
2020,04,12,15,26,16.20
2020,04,12,15,27,16.20
2020,04,12,15,28,16.10
2020,04,12,15,29,16.00
2020,04,12,15,30,16.00
2020,04,12,15,31,15.90
2020,04,12,15,32,15.90
2020,04,12,15,33,15.90
2020,04,12,15,34,15.80
2020,04,12,15,35,15.70
2020,04,12,15,36,15.70
2020,04,12,15,37,15.70
2020,04,12,15,38,15.80
2020,04,12,15,39,15.90
2020,04,12,15,40,16.00
2020,04,12,15,41,16.10
2020,04,12,15,42,16.20
2020,04,12,15,43,16.20
2020,04,12,15,44,16.20
2020,04,12,15,45,16.30
2020,04,12,15,46,16.30
2020,04,12,15,47,16.40
2020,04,12,15,48,16.40
2020,04,12,15,49,16.40
2020,04,12,15,50,16.30
2020,04,12,15,51,16.20
2020,04,12,15,52,16.20
2020,04,12,15,53,16.20
2020,04,12,15,54,16.20
2020,04,12,15,55,16.20
2020,04,12,15,56,16.20
2020,04,12,15,57,16.20
2020,04,12,15,58,16.20
2020,04,12,15,59,16.20
2020,04,12,16,00,16.10
2020,04,12,16,01,16.10
2020,04,12,16,02,16.10
2020,04,12,16,03,16.10
2020,04,12,16,04,16.10
2020,04,12,16,05,16.10
2020,04,12,16,06,16.10
2020,04,12,16,07,16.00
2020,04,12,16,08,16.00
2020,04,12,16,09,16.00
2020,04,12,16,10,16.00
2020,04,12,16,11,15.90
2020,04,12,16,12,15.90
2020,04,12,16,13,16.00
2020,04,12,16,14,16.00
2020,04,12,16,15,15.90
2020,04,12,16,16,15.90
2020,04,12,16,17,16.00
2020,04,12,16,18,16.00
2020,04,12,16,19,16.00
2020,04,12,16,20,16.10
2020,04,12,16,21,16.20
2020,04,12,16,22,16.20
2020,04,12,16,23,16.20
2020,04,12,16,24,16.20
2020,04,12,16,25,16.20
2020,04,12,16,26,16.20
2020,04,12,16,27,16.10
2020,04,12,16,28,16.10
2020,04,12,16,29,16.10
2020,04,12,16,30,16.10
2020,04,12,16,31,16.10
2020,04,12,16,32,16.10
2020,04,12,16,33,16.20
2020,04,12,16,34,16.20
2020,04,12,16,35,16.20
2020,04,12,16,36,16.30
2020,04,12,16,37,16.40
2020,04,12,16,38,16.40
2020,04,12,16,39,16.40
2020,04,12,16,40,16.40
2020,04,12,16,41,16.40
2020,04,12,16,42,16.30
2020,04,12,16,43,16.30
2020,04,12,16,44,16.30
2020,04,12,16,45,16.30
2020,04,12,16,46,16.30
2020,04,12,16,47,16.30
2020,04,12,16,48,16.20
2020,04,12,16,49,16.20
2020,04,12,16,50,16.20
2020,04,12,16,51,16.20
2020,04,12,16,52,16.20
2020,04,12,16,53,16.20
2020,04,12,16,54,16.20
2020,04,12,16,55,16.20
2020,04,12,16,56,16.20
2020,04,12,16,57,16.30
2020,04,12,16,58,16.30
2020,04,12,16,59,16.30
2020,04,12,17,00,16.30
2020,04,12,17,01,16.30
2020,04,12,17,02,16.40
2020,04,12,17,03,16.40
2020,04,12,17,04,16.50
2020,04,12,17,05,16.60
2020,04,12,17,06,16.60
2020,04,12,17,07,16.60
2020,04,12,17,08,16.60
2020,04,12,17,09,16.60
2020,04,12,17,10,16.70
2020,04,12,17,11,16.70
2020,04,12,17,12,16.70
2020,04,12,17,13,16.70
2020,04,12,17,14,16.60
2020,04,12,17,15,16.60
2020,04,12,17,16,16.60
2020,04,12,17,17,16.60
2020,04,12,17,18,16.60
2020,04,12,17,19,16.60
2020,04,12,17,20,16.50
2020,04,12,17,21,16.50
2020,04,12,17,22,16.50
2020,04,12,17,23,16.50
2020,04,12,17,24,16.40
2020,04,12,17,25,16.40
2020,04,12,17,26,16.40
2020,04,12,17,27,16.40
2020,04,12,17,28,16.30
2020,04,12,17,29,16.30
2020,04,12,17,30,16.20
2020,04,12,17,31,16.10
2020,04,12,17,32,16.10
2020,04,12,17,33,16.10
2020,04,12,17,34,16.10
2020,04,12,17,35,16.10
2020,04,12,17,36,16.10
2020,04,12,17,37,16.10
2020,04,12,17,38,16.10
2020,04,12,17,39,16.10
2020,04,12,17,40,16.10
2020,04,12,17,41,16.10
2020,04,12,17,42,16.20
2020,04,12,17,43,16.20
2020,04,12,17,44,16.20
2020,04,12,17,45,16.30
2020,04,12,17,46,16.30
2020,04,12,17,47,16.40
2020,04,12,17,48,16.40
2020,04,12,17,49,16.40
2020,04,12,17,50,16.50
2020,04,12,17,51,16.50
2020,04,12,17,52,16.50
2020,04,12,17,53,16.60
2020,04,12,17,54,16.60
2020,04,12,17,55,16.60
2020,04,12,17,56,16.70
2020,04,12,17,57,16.70
2020,04,12,17,58,16.60
2020,04,12,17,59,16.60
2020,04,12,18,00,16.50
2020,04,12,18,01,16.40
2020,04,12,18,02,16.30
2020,04,12,18,03,16.30
2020,04,12,18,04,16.30
2020,04,12,18,05,16.30
2020,04,12,18,06,16.20
2020,04,12,18,07,16.10
2020,04,12,18,08,16.10
2020,04,12,18,09,16.10
2020,04,12,18,10,16.00
2020,04,12,18,11,16.00
2020,04,12,18,12,16.00
2020,04,12,18,13,15.90
2020,04,12,18,14,15.90
2020,04,12,18,15,15.90
2020,04,12,18,16,15.80
2020,04,12,18,17,15.80
2020,04,12,18,18,15.80
2020,04,12,18,19,15.70
2020,04,12,18,20,15.60
2020,04,12,18,21,15.60
2020,04,12,18,22,15.60
2020,04,12,18,23,15.50
2020,04,12,18,24,15.50
2020,04,12,18,25,15.40
2020,04,12,18,26,15.40
2020,04,12,18,27,15.40
2020,04,12,18,28,15.30
2020,04,12,18,29,15.30
2020,04,12,18,30,15.30
2020,04,12,18,31,15.30
2020,04,12,18,32,15.20
2020,04,12,18,33,15.20
2020,04,12,18,34,15.10
2020,04,12,18,35,15.10
2020,04,12,18,36,15.10
2020,04,12,18,37,15.00
2020,04,12,18,38,15.00
2020,04,12,18,39,15.00
2020,04,12,18,40,14.90
2020,04,12,18,41,14.90
2020,04,12,18,42,14.80
2020,04,12,18,43,14.80
2020,04,12,18,44,14.70
2020,04,12,18,45,14.60
2020,04,12,18,46,14.60
2020,04,12,18,47,14.50
2020,04,12,18,48,14.40
2020,04,12,18,49,14.40
2020,04,12,18,50,14.30
2020,04,12,18,51,14.30
2020,04,12,18,52,14.20
2020,04,12,18,53,14.20
2020,04,12,18,54,14.20
2020,04,12,18,55,14.20
2020,04,12,18,56,14.10
2020,04,12,18,57,14.10
2020,04,12,18,58,14.00
2020,04,12,18,59,14.00
2020,04,12,19,00,13.90
2020,04,12,19,01,13.80
2020,04,12,19,02,13.80
2020,04,12,19,03,13.70
2020,04,12,19,04,13.70
2020,04,12,19,05,13.70
2020,04,12,19,06,13.60
2020,04,12,19,07,13.60
2020,04,12,19,08,13.60
2020,04,12,19,09,13.50
2020,04,12,19,10,13.50
2020,04,12,19,11,13.40
2020,04,12,19,12,13.40
2020,04,12,19,13,13.30
2020,04,12,19,14,13.20
2020,04,12,19,15,13.20
2020,04,12,19,16,13.10
2020,04,12,19,17,13.10
2020,04,12,19,18,13.00
2020,04,12,19,19,13.00
2020,04,12,19,20,12.90
2020,04,12,19,21,12.90
2020,04,12,19,22,12.80
2020,04,12,19,23,12.70
2020,04,12,19,24,12.70
2020,04,12,19,25,12.60
2020,04,12,19,26,12.60
2020,04,12,19,27,12.50
2020,04,12,19,28,12.50
2020,04,12,19,29,12.40
2020,04,12,19,30,12.40
2020,04,12,19,31,12.40
2020,04,12,19,32,12.30
2020,04,12,19,33,12.20
2020,04,12,19,34,12.20
2020,04,12,19,35,12.20
2020,04,12,19,36,12.20
2020,04,12,19,37,12.20
2020,04,12,19,38,12.20
2020,04,12,19,39,12.20
2020,04,12,19,40,12.20
2020,04,12,19,41,12.20
2020,04,12,19,42,12.20
